Regional Weather Roundup
Issued by NWS

Home | Current Version | Previous Version | Graphics & Text | Print | Product List | Glossary On
Versions: 1 2 3 4 5 6 7 8 9 10 11 12 13 14 15 16 17 18 19 20 21 22 23 24 25 26 27 28 29 30 31 32 33 34 35 36 37 38 39 40 41 42 43 44 45 46 47 48 49 50
000
ASUS43 KDTX 251101
RWRMI
MICHIGAN HOURLY REGIONAL WEATHER ROUNDUP
NATIONAL WEATHER SERVICE DETROIT/PONTIAC MI
700 AM EDT WED MAY 25 2016

NOTE: "FAIR" INDICATES FEW OR NO CLOUDS BELOW 12,000 FEET WITH NO
SIGNIFICANT WEATHER AND/OR OBSTRUCTION TO VISIBILITY.

MIZ047>049-052>055-059>063-066>070-074>076-081>083-251200-
SOUTHEAST LOWER MICHIGAN

CITY           SKY/WX    TMP DP  RH WIND       PRES   REMARKS
ADRIAN         MOCLDY    60  48  64 W3        30.07R
ALMA           CLEAR     59  55  85 S3        30.02S
ANN ARBOR      CLEAR     55  50  83 W3        30.06R
BAD AXE        CLEAR     59  52  78 SE5       30.03S
CARO           CLEAR     60  53  79 CALM      30.02R
DETROIT CITY   PTCLDY    65  47  52 SW6       30.05S
DETROIT        CLOUDY    61  48  62 S5        30.07R
FLINT          CLEAR     66  52  60 SW5       30.04R
GROSSE ILE     PTCLDY    59  50  72 CALM      30.05R
HILLSDALE      CLEAR     63  48  58 CALM      30.07S
HOWELL         PTCLDY    64  51  62 SW3       30.05S

CITY           SKY/WX    TMP DP  RH WIND       PRES   REMARKS
JACKSON        PTCLDY    64  53  67 SW5       30.05F
LAMBERTVILLE   PTCLDY    62  50  64 CALM      30.08R
LANSING        PTCLDY    65  53  65 SW6       30.04R
LAPEER         FAIR      56  54  91 CALM      30.04S
MASON          PTCLDY    65  53  64 CALM      30.06R
MONROE         MOCLDY    58  50  75 CALM      30.06R
PONTIAC        PTCLDY    64  50  60 CALM      30.05R
PORT HOPE        N/A     61  53  75 S3        30.01R
PORT HURON     PTCLDY    55  54  94 CALM      30.05R
TRI CITIES     CLEAR     67  53  61 SW7       30.02R
MIDLAND        FAIR      56  56 100 CALM      30.01R FOG
TROY           PTCLDY    65  48  55 SW3       30.07S
SAGINAW HB     CLEAR     64  52  63 SW7       30.01R
$$
MIZ043>046-050>051-056>058-064>065-071>073-077>080-251200-
SOUTHWEST LOWER MICHIGAN

CITY           SKY/WX    TMP DP  RH WIND       PRES   REMARKS
BATTLE CREEK   PTCLDY    62  53  72 S5        30.05S
BENTON HARBOR  CLEAR     61  55  81 E3        30.01S
BIG RAPIDS     FOG       56  56  97 CALM      30.03R VSB 1
COLDWATER      CLEAR     59  54  82 CALM      30.06S
FREMONT        FAIR      58  56  94 E3        30.00S
HOLLAND        CLEAR     69  58  67 SW5       30.01F
GRAND RAPIDS   MOCLDY    65  55  70 S5        30.02S
IONIA          FAIR      66  53  64 S5        30.02S
KALAMAZOO      PTCLDY    64  53  67 S3        30.05S
LUDINGTON      CLOUDY    53  53 100 E3        30.00S FOG
MARSHALL       PTCLDY    64  53  68 CALM      30.05S
MOUNT PLEASANT CLEAR     56  56  99 CALM      30.01S FOG
MUSKEGON       MOCLDY    64  54  69 S3        30.00S
SOUTH HAVEN    CLEAR     64  57  78 CALM      30.01S
$$
MIZ016>042-251200-
NORTHERN LOWER MICHIGAN

CITY           SKY/WX    TMP DP  RH WIND       PRES   REMARKS
ALPENA         PTCLDY    55  53  93 W3        30.04R
BEAVER ISLAND  CLOUDY    55  55 100 CALM      30.04R FOG
BELLAIRE       FOG       54  53  97 CALM      30.03R VSB<1/4
CADILLAC       CLEAR     55  52  90 CALM      30.02R
CHARLEVOIX     FOG       56  56 100 CALM      30.05S VSB 3/4
FRANKFORT      CLEAR     52  50  94 CALM      30.01R
GAYLORD        CLEAR     54  52  93 CALM      30.03R FOG
GRAYLING       CLEAR     52  50  93 N3        30.03R
HARBOR SPRINGS FOG       55  55  99 NE3       30.03S VSB 1/4
HOUGHTON LAKE  CLEAR     53  52  96 CALM      30.03R
MANISTEE       CLEAR     52  48  87 E3        30.01S
OSCODA         CLOUDY    59  51  75 CALM      30.03R
PELLSTON       FOG       56  55  97 CALM      30.04R VSB 1/4
ROGERS CITY    FOG       55  53  93 CALM      30.05R VSB 1/4
TRAVERSE CITY  MOCLDY    53  50  89 CALM      30.02R FOG
$$
MIZ007>008-015-251200-
EASTERN UPPER MICHIGAN

CITY           SKY/WX    TMP DP  RH WIND       PRES   REMARKS
KINROSS          N/A     54  54 100 N5        30.05R
MACKINAC ISLAN FOG       55  55 100 NE7       30.03S VSB 1/4
NEWBERRY       FOG       52  51  97 N6        30.06R VSB 1/2
S. S. MARIE    CLOUDY    57  54  89 NE3       30.05R
MUNISING         N/A     46  45  96 N7        30.06S
$$
MIZ004>006-011>014-085-251200-
CENTRAL UPPER MICHIGAN

CITY           SKY/WX    TMP DP  RH WIND       PRES   REMARKS
MANISTIQUE     FOG       53  52  97 N6        30.04S VSB 3/4
ESCANABA       CLOUDY    52  50  93 N6        30.05R
MENOMINEE      CLOUDY    55  54  94 N8          N/A  VSB 1/2
SAWYER-GWINN   FOG       48  46  93 N6        30.06F VSB 1/2
$$
MIZ001>003-009>011-084-251200-
WESTERN UPPER MICHIGAN

CITY           SKY/WX    TMP DP  RH WIND       PRES   REMARKS
IRON MOUNTAIN  CLOUDY    53  51  93 CALM      30.05R
HOUGHTON       CLOUDY    48  46  93 E9        30.07R
COPPER HARBOR    N/A     44  43  96 E6        30.08S
IRONWOOD       CLOUDY    55  55 100 E8        30.00S VSB 1/2
$$

ABBREVIATIONS USED IN REMARKS
   TC - TEMPERATURE IN CELSIUS
  WCI - WIND CHILL INDEX
   HX - HEAT INDEX
  VSB - VISIBILITY





USA.gov is the U.S. government's official web portal to all federal, state and local government web resources and services.